Location: Nairn
(57.5833°N, 3.8667°W)
Time: 19:02:28
(UTC+00:00)

Cosmos 1627 Rocket - Pass Details

Date: 07 August 2020
Orbit: 951 x 1003 km, 82.9° (Epoch: 24 September)

Event Time Altitude Azimuth Distance (km) Brightness Sun altitude
Rises 01:39:56 0° 347° (NNW) 3,642 8.5 -14.3°
Reaches altitude 10° 01:42:25 10° 346° (NNW) 2,695 7.7 -14.2°
Maximum altitude 01:48:35 79° 261° (W) 984 4.5 -13.9°
Enters shadow 01:53:44 15° 177° (S) 2,327 5.9 -13.6°
